Location: Deurze
(52.9838°N, 6.6090°E)
Time: 19:15:48
(UTC+00:00)

Cosmos 1140 Rocket - Pass Details

Date: 11 March 2026
Orbit: 739 x 762 km, 74.1° (Epoch: 20 April)

Event Time Altitude Azimuth Distance (km) Brightness Sun altitude
Rises 19:58:43 0° 219° (SW) 3,207 6.9 -22.5°
Reaches altitude 10° 20:01:08 10° 224° (SW) 2,288 6.2 -22.8°
Maximum altitude 20:06:13 54° 302° (WNW) 930 4.2 -23.5°
Drops below altitude 10° 20:11:21 10° 20° (NNE) 2,309 6.1 -24.2°
Sets 20:13:48 0° 25° (NNE) 3,239 6.8 -24.5°
